(2016) Heinemann
ephemeris date magn radius delta ra dec elong phase
Opposition9 Jun 202616.13.105 AU2.090 AU17h09m-24°08'178.8°0.4°
Today23 Jun 202616.43.080 AU2.088 AU16h58m-23°54'164.6°5.0°
(2016) Heinemann - 2026-06-23
astro.vanbuitenen.nl


 
-1 year
-1 month
-1 day
Now
+1 day
+1 month
+1 year

The interactive orbit chart above shows the body's path through the solar system and its position at the given date. Green and blue lines are shown perpendicular to the ecliptic plane: Green if the path is above the ecliptic plane, blue if it is below. (Left-click and drag to rotate the view; Right-click and drag to move the view; Use scroll wheel to zoom in our out.)

The orbital elements of Heinemann are:

            e (Eccentricity)                : 0.1899989
            a (Semimajor axis)              : 3.1319350
            i (Inclination)                 : 0.91745
            Ω (Longitude of ascending node) : 16.98339
            ω (Argument of perihelion)      : 339.92502
            M (Mean anomaly)                : 283.35011
            Epoch                           : 2026 Jun 09

            L (Longitude of perihelion)     : -3.08922
            B (Latitude of perihelion)      : -0.31490
            P (Orbital period in years)     : 5.54            
        

The light curve chart below shows the estimated development of the minor planet's magnitude.


The all-sky chart below shows the path of the minor planet over the same period as the light curve. The current position is marked yellow.





The following chart shows the path of the minor planet in the next few days. The field of view is optimized for (~10x50) binoculars and finderscopes.




Ephemerides:
Date       Time       RA (2000)    DEC (2000)    delta   radius  elong  phase   PA    magn
2026-06-23 00:00 UT   16 58 11.1   -23 54 11     2.088    3.080  164.6    5.0    92   16.4 
2026-06-23 00:09 UT   16 58 10.8   -23 54 10     2.088    3.080  164.6    5.0    92   16.4 
2026-06-24 00:00 UT   16 57 22.4   -23 52 59     2.090    3.078  163.5    5.4    92   16.5 
2026-06-25 00:00 UT   16 56 34.5   -23 51 47     2.092    3.076  162.4    5.7    92   16.5 
2026-06-26 00:00 UT   16 55 47.3   -23 50 35     2.095    3.075  161.2    6.1    93   16.5 
2026-06-27 00:00 UT   16 55 00.8   -23 49 23     2.097    3.073  160.1    6.5    93   16.5 
2026-06-28 00:00 UT   16 54 15.2   -23 48 10     2.100    3.071  159.0    6.8    93   16.5 
2026-06-29 00:00 UT   16 53 30.4   -23 46 57     2.103    3.069  157.9    7.2    94   16.6 
2026-06-30 00:00 UT   16 52 46.5   -23 45 44     2.107    3.067  156.7    7.5    94   16.6 
2026-07-01 00:00 UT   16 52 03.6   -23 44 32     2.110    3.065  155.6    7.9    94   16.6 
2026-07-02 00:00 UT   16 51 21.6   -23 43 20     2.114    3.063  154.5    8.2    94   16.6 
2026-07-03 00:00 UT   16 50 40.6   -23 42 08     2.118    3.061  153.4    8.6    94   16.6 
2026-07-04 00:00 UT   16 50 00.6   -23 40 56     2.123    3.060  152.3    8.9    95   16.6 
2026-07-05 00:00 UT   16 49 21.7   -23 39 46     2.127    3.058  151.2    9.2    95   16.7 
2026-07-06 00:00 UT   16 48 43.9   -23 38 36     2.132    3.056  150.1    9.5    95   16.7 
2026-07-07 00:00 UT   16 48 07.3   -23 37 27     2.137    3.054  149.0    9.9    95   16.7 
2026-07-08 00:00 UT   16 47 31.8   -23 36 19     2.143    3.052  147.9   10.2    95   16.7 
2026-07-09 00:00 UT   16 46 57.5   -23 35 12     2.148    3.050  146.8   10.5    95   16.7 
2026-07-10 00:00 UT   16 46 24.5   -23 34 06     2.154    3.048  145.7   10.8    95   16.7 
2026-07-11 00:00 UT   16 45 52.7   -23 33 02     2.160    3.046  144.7   11.1    96   16.8 
2026-07-12 00:00 UT   16 45 22.2   -23 31 59     2.166    3.044  143.6   11.4    96   16.8 
2026-07-13 00:00 UT   16 44 53.0   -23 30 57     2.172    3.043  142.5   11.7    96   16.8 
2026-07-14 00:00 UT   16 44 25.1   -23 29 58     2.179    3.041  141.5   12.0    96   16.8 
2026-07-15 00:00 UT   16 43 58.6   -23 28 60     2.186    3.039  140.4   12.3    96   16.8 
2026-07-16 00:00 UT   16 43 33.4   -23 28 04     2.193    3.037  139.4   12.6    96   16.8 
2026-07-17 00:00 UT   16 43 09.7   -23 27 10     2.200    3.035  138.3   12.9    96   16.9 
2026-07-18 00:00 UT   16 42 47.4   -23 26 18     2.207    3.033  137.3   13.1    96   16.9 
2026-07-19 00:00 UT   16 42 26.5   -23 25 28     2.215    3.031  136.2   13.4    96   16.9 
2026-07-20 00:00 UT   16 42 07.0   -23 24 40     2.222    3.029  135.2   13.7    96   16.9 
2026-07-21 00:00 UT   16 41 49.0   -23 23 54     2.230    3.028  134.2   13.9    97   16.9 
2026-07-22 00:00 UT   16 41 32.4   -23 23 11     2.238    3.026  133.2   14.2    97   16.9 
2026-07-23 00:00 UT   16 41 17.3   -23 22 30     2.247    3.024  132.2   14.4    97   17.0 


    Terminology:
            
    delta:  distance between minor planet and earth in AU
    radius: distance between minor planet and sun in AU
    magn:   magnitude (brightness) estimate    
    ra:     right ascension in hours (24h = 360deg)
    dec:    declination in degrees
    elong:  elongation in degrees (angle sun-earth-minor planet)    
    phase:  phase angle in degrees (angle sun-minor planet-earth)        
    AU:     Astronomical Unit (mean distance between earth and sun: 149597870.7 km
    

Orbital elements provided by the MPC (Minor Planet Center).
Calculations by a modified version of AAPlus, a C# implementation of the AA+ project by PJ Naughter from the algorithms presented in the book "Astronomical Algorithms" by Jean Meeus.
NGC2000 dso catalog and star labels from VizieR as provided by the Strasbourg astronomical Data Center.
Tycho2 catalog from the ESO archive.